{"data":{"norad_id":59799,"epoch":"2026-05-24T23:57:55.008576Z","epoch_age_seconds":65320,"freshness":"FRESH","line1":"1 59799U 24093T   26144.99855334  .00007019  00000+0  26452-3 0  9998","line2":"2 59799  43.0009 138.1308 0000678  30.0595 330.0295 15.27557875114363","mean_motion":15.27557875,"eccentricity":6.78e-5,"inclination_deg":43.0009,"raan_deg":138.1308,"arg_perigee_deg":30.0595,"mean_anomaly_deg":330.0295,"bstar":0.00026452,"rev_number":11436,"period_min":94.268114064091,"perigee_km":482.65015413958,"apogee_km":483.58053995784,"semimajor_km":6861.2523470487,"source":"CELESTRAK","updated_at":"2026-05-25T13:38:19.083477Z"}}